| time (UTC) | temp F | wind direction | speed MPH | gust MPH | rain 1hr in | rain 24hr in | rain mn in | humidity % | barometer mb |
| 20260509213018 | 68 | 83 | 3.0 | 12.0 | 0.00 | 0.00 | 0.00 | 77 | 1011.4 |
| 20260509211511 | 64 | 83 | 3.0 | 6.0 | 0.00 | 0.00 | 0.00 | 86 | 1011.6 |
| 20260509210017 | 65 | 68 | 1.0 | 3.0 | 0.00 | 0.00 | 0.00 | 87 | 1012.2 |
| 20260509204522 | 65 | 96 | 3.0 | 11.0 | 0.00 | 0.00 | 0.00 | 87 | 1012.5 |
| 20260509203013 | 65 | 69 | 5.0 | 9.0 | 0.00 | 0.00 | 0.00 | 86 | 1012.6 |
| 20260509201509 | 65 | 83 | 7.0 | 13.0 | 0.00 | 0.00 | 0.00 | 86 | 1012.7 |
| 20260509200014 | 65 | 94 | 8.0 | 15.0 | 0.00 | 0.00 | 0.00 | 86 | 1012.4 |
| 20260509194520 | 65 | 82 | 9.0 | 14.0 | 0.00 | 0.00 | 0.00 | 86 | 1012.4 |
| 20260509193029 | 65 | 109 | 5.0 | 12.0 | 0.00 | 0.00 | 0.00 | 87 | 1013.0 |
| 20260509191510 | 65 | 107 | 5.0 | 9.0 | 0.00 | 0.00 | 0.00 | 87 | 1013.5 |
| 20260509190016 | 66 | 88 | 4.0 | 9.0 | 0.00 | 0.00 | 0.00 | 86 | 1013.5 |
| 20260509184531 | 66 | 61 | 2.0 | 4.0 | 0.00 | 0.00 | 0.00 | 85 | 1014.2 |
| 20260509183030 | 66 | 131 | 2.0 | 9.0 | 0.00 | 0.00 | 0.00 | 85 | 1014.0 |
| 20260509181524 | 66 | 100 | 4.0 | 10.0 | 0.00 | 0.00 | 0.00 | 83 | 1013.7 |
| 20260509180015 | 66 | 83 | 4.0 | 12.0 | 0.00 | 0.00 | 0.00 | 82 | 1013.6 |
| 20260509174521 | 66 | 87 | 7.0 | 13.0 | 0.00 | 0.00 | 0.00 | 83 | 1013.6 |
| 20260509173019 | 66 | 104 | 4.0 | 8.0 | 0.00 | 0.00 | 0.00 | 82 | 1013.9 |
| 20260509171520 | 66 | 105 | 4.0 | 10.0 | 0.00 | 0.00 | 0.00 | 82 | 1014.4 |
| 20260509170026 | 67 | 129 | 4.0 | 7.0 | 0.00 | 0.00 | 0.00 | 81 | 1014.4 |
| 20260509164514 | 67 | 106 | 2.0 | 6.0 | 0.00 | 0.00 | 0.00 | 81 | 1014.6 |
| 20260509163026 | 67 | 103 | 3.0 | 6.0 | 0.00 | 0.00 | 0.00 | 79 | 1015.0 |
| 20260509161520 | 67 | 112 | 3.0 | 7.0 | 0.00 | 0.00 | 0.00 | 78 | 1014.3 |
| 20260509160022 | 67 | 121 | 6.0 | 11.0 | 0.00 | 0.00 | 0.00 | 78 | 1014.0 |
| 20260509154525 | 67 | 96 | 9.0 | 13.0 | 0.00 | 0.00 | 0.00 | 77 | 1013.7 |
| 20260509153022 | 67 | 130 | 8.0 | 15.0 | 0.00 | 0.00 | 0.00 | 77 | 1013.7 |
| 20260509151519 | 67 | 81 | 9.0 | 15.0 | 0.00 | 0.00 | 0.00 | 75 | 1013.7 |
| 20260509150022 | 68 | 141 | 7.0 | 11.0 | 0.00 | 0.00 | 0.00 | 71 | 1014.3 |
| 20260509144503 | 68 | 80 | 7.0 | 11.0 | 0.00 | 0.00 | 0.00 | 70 | 1014.4 |
| 20260509143007 | 69 | 79 | 6.0 | 10.0 | 0.00 | 0.00 | 0.00 | 70 | 1014.6 |
| 20260509141504 | 69 | 89 | 5.0 | 11.0 | 0.00 | 0.00 | 0.00 | 73 | 1014.6 |
| 20260509140002 | 69 | 86 | 6.0 | 12.0 | 0.00 | 0.00 | 0.00 | 73 | 1014.7 |
| 20260509134504 | 69 | 102 | 5.0 | 13.0 | 0.00 | 0.00 | 0.00 | 73 | 1014.8 |
| 20260509131502 | 69 | 107 | 5.0 | 12.0 | 0.00 | 0.00 | 0.00 | 75 | 1015.0 |
| 20260509130004 | 69 | 105 | 4.0 | 10.0 | 0.00 | 0.00 | 0.00 | 73 | 1015.3 |
| 20260509124503 | 69 | 112 | 5.0 | 11.0 | 0.00 | 0.00 | 0.00 | 74 | 1015.5 |
| 20260509123004 | 69 | 90 | 5.0 | 10.0 | 0.00 | 0.00 | 0.00 | 75 | 1015.3 |
| 20260509120004 | 69 | 108 | 5.0 | 10.0 | 0.00 | 0.00 | 0.00 | 75 | 1015.4 |
| 20260509114503 | 67 | 92 | 6.0 | 11.0 | 0.00 | 0.00 | 0.00 | 78 | 1015.6 |
| 20260509113004 | 67 | 79 | 5.0 | 9.0 | 0.00 | 0.00 | 0.00 | 78 | 1015.8 |
| 20260509111504 | 67 | 103 | 4.0 | 9.0 | 0.00 | 0.00 | 0.00 | 77 | 1016.0 |
| 20260509110004 | 67 | 71 | 4.0 | 10.0 | 0.00 | 0.00 | 0.00 | 77 | 1016.0 |
| 20260509104508 | 67 | 92 | 5.0 | 9.0 | 0.00 | 0.00 | 0.00 | 77 | 1015.9 |
| 20260509103006 | 67 | 40 | 5.0 | 10.0 | 0.00 | 0.00 | 0.00 | 77 | 1015.8 |
| 20260509101510 | 69 | 94 | 5.0 | 9.0 | 0.00 | 0.00 | 0.00 | 74 | 1015.9 |
| 20260509100007 | 68 | 112 | 4.0 | 9.0 | 0.00 | 0.00 | 0.00 | 77 | 1015.9 |
| 20260509094508 | 67 | 68 | 7.0 | 10.0 | 0.00 | 0.00 | 0.00 | 78 | 1016.0 |
| 20260509093003 | 66 | 78 | 7.0 | 10.0 | 0.00 | 0.00 | 0.00 | 80 | 1016.1 |
| 20260509091509 | 66 | 95 | 6.0 | 10.0 | 0.00 | 0.00 | 0.00 | 79 | 1016.2 |
| 20260509090008 | 66 | 107 | 6.0 | 10.0 | 0.00 | 0.00 | 0.00 | 80 | 1016.1 |
| 20260509083027 | 66 | 85 | 5.0 | 9.0 | 0.00 | 0.00 | 0.00 | 81 | 1016.1 |
| 20260509081509 | 65 | 80 | 4.0 | 9.0 | 0.00 | 0.00 | 0.00 | 81 | 1016.0 |
| 20260509080009 | 66 | 107 | 5.0 | 9.0 | 0.00 | 0.00 | 0.00 | 79 | 1016.1 |
| 20260509071514 | 65 | 284 | 2.0 | 4.0 | 0.00 | 0.00 | 0.00 | 80 | 1016.3 |
| 20260509070008 | 66 | 325 | 2.0 | 5.0 | 0.00 | 0.00 | 0.00 | 79 | 1016.3 |
| 20260509064514 | 65 | 292 | 2.0 | 5.0 | 0.00 | 0.00 | 0.00 | 77 | 1016.3 |
| 20260509060006 | 65 | 253 | 2.0 | 6.0 | 0.00 | 0.00 | 0.00 | 80 | 1016.2 |
| 20260509054508 | 65 | 326 | 2.0 | 7.0 | 0.00 | 0.00 | 0.00 | 79 | 1016.2 |
| 20260509053003 | 64 | 248 | 2.0 | 8.0 | 0.00 | 0.00 | 0.00 | 81 | 1016.2 |
| 20260509051504 | 63 | 229 | 4.0 | 8.0 | 0.00 | 0.00 | 0.00 | 80 | 1016.1 |
| 20260509050005 | 63 | 258 | 3.0 | 6.0 | 0.00 | 0.00 | 0.00 | 80 | 1016.0 |
| 20260509044518 | 63 | 239 | 3.0 | 5.0 | 0.00 | 0.00 | 0.00 | 80 | 1015.8 |
| 20260509043012 | 62 | 234 | 2.0 | 5.0 | 0.00 | 0.00 | 0.00 | 80 | 1015.8 |
| 20260509041503 | 62 | 250 | 4.0 | 8.0 | 0.00 | 0.00 | 0.00 | 80 | 1015.7 |
| 20260509040009 | 62 | 233 | 3.0 | 8.0 | 0.00 | 0.00 | 0.00 | 81 | 1015.6 |
| 20260509034507 | 62 | 228 | 3.0 | 8.0 | 0.00 | 0.00 | 0.00 | 82 | 1015.6 |
| 20260509033010 | 62 | 215 | 4.0 | 7.0 | 0.00 | 0.00 | 0.00 | 83 | 1015.6 |
| 20260509031518 | 62 | 237 | 4.0 | 8.0 | 0.00 | 0.00 | 0.00 | 83 | 1015.6 |
| 20260509030006 | 63 | 242 | 4.0 | 8.0 | 0.00 | 0.00 | 0.00 | 84 | 1015.5 |
| 20260509024512 | 63 | 233 | 4.0 | 9.0 | 0.00 | 0.00 | 0.00 | 84 | 1015.4 |
| 20260509023009 | 63 | 252 | 4.0 | 9.0 | 0.00 | 0.00 | 0.00 | 84 | 1015.3 |
| 20260509021515 | 63 | 318 | 4.0 | 8.0 | 0.00 | 0.00 | 0.00 | 83 | 1015.3 |
| 20260509020020 | 63 | 257 | 3.0 | 9.0 | 0.00 | 0.00 | 0.00 | 83 | 1015.1 |
| 20260509014505 | 63 | 280 | 4.0 | 9.0 | 0.00 | 0.00 | 0.00 | 83 | 1015.2 |
| 20260509013008 | 64 | 299 | 3.0 | 9.0 | 0.00 | 0.00 | 0.00 | 82 | 1015.1 |
| 20260509011511 | 64 | 227 | 2.0 | 9.0 | 0.00 | 0.00 | 0.00 | 81 | 1014.9 |
| 20260509010017 | 64 | 242 | 5.0 | 9.0 | 0.00 | 0.00 | 0.00 | 77 | 1014.9 |
| 20260509004526 | 65 | 275 | 5.0 | 8.0 | 0.00 | 0.00 | 0.00 | 75 | 1014.8 |
| 20260509003009 | 64 | 232 | 3.0 | 7.0 | 0.00 | 0.00 | 0.00 | 75 | 1014.7 |
| 20260509001513 | 64 | 264 | 3.0 | 7.0 | 0.00 | 0.00 | 0.00 | 75 | 1014.8 |
| 20260509000015 | 65 | 240 | 4.0 | 8.0 | 0.00 | 0.00 | 0.00 | 75 | 1014.8 |
| 20260508234520 | 65 | 248 | 3.0 | 7.0 | 0.00 | 0.00 | 0.00 | 73 | 1015.0 |
| 20260508233022 | 65 | 236 | 2.0 | 6.0 | 0.00 | 0.00 | 0.00 | 73 | 1014.9 |
| 20260508231510 | 65 | 247 | 3.0 | 4.0 | 0.00 | 0.00 | 0.00 | 72 | 1014.8 |
| 20260508230015 | 65 | 93 | 0.0 | 0.0 | 0.00 | 0.00 | 0.00 | 70 | 1014.7 |
| 20260508224515 | 66 | 148 | 0.0 | 2.0 | 0.00 | 0.00 | 0.00 | 68 | 1014.7 |
| 20260508223004 | 66 | 188 | 0.0 | 4.0 | 0.00 | 0.00 | 0.00 | 67 | 1014.8 |
| 20260508221508 | 66 | 215 | 2.0 | 6.0 | 0.00 | 0.00 | 0.00 | 67 | 1014.8 |
| 20260508220014 | 66 | 244 | 3.0 | 8.0 | 0.00 | 0.00 | 0.00 | 67 | 1015.0 |
| 20260508214518 | 65 | 242 | 3.0 | 6.0 | 0.00 | 0.00 | 0.00 | 68 | 1015.0 |